KC3ELT-10 Weather Reports


Display with metric or nautical units.
time (UTC)temp
F
wind
direction
speed
MPH
gust
MPH
rain 1hr
in
rain 24hr
in
rain mn
in
humidity
%
barometer
mb
20260504150758 60 214 6.0 13.0 0.00 0.00 0.00 42 1007.3
20260504150258 60 243 6.0 11.0 0.00 0.00 0.00 44 1007.3
20260504141258 56 141 3.0 11.0 0.00 0.00 0.00 52 1007.5
20260504140758 57 235 2.0 11.0 0.00 0.00 0.00 51 1007.5
20260504140258 57 184 2.0 7.0 0.00 0.00 0.00 52 1007.5
20260504130758 53 282 1.0 9.0 0.00 0.00 0.00 54 1008.0
20260504130258 52 259 1.0 6.0 0.00 0.00 0.00 53 1008.0
20260504120258 48 148 4.0 9.0 0.00 0.00 0.00 56 1008.2
20260504110258 45 174 3.0 7.0 0.00 0.00 0.00 57 1008.2
20260504100258 46 206 2.0 4.0 0.00 0.00 0.00 54 1008.2
20260504081758 47 270 1.0 4.0 0.00 0.00 0.00 52 1008.2
20260504081258 47 257 2.0 9.0 0.00 0.00 0.00 52 1008.3
20260504080758 47 214 3.0 9.0 0.00 0.00 0.00 51 1008.3
20260504080258 48 251 3.0 9.0 0.00 0.00 0.00 51 1008.3
20260504070258 50 245 3.0 4.0 0.00 0.00 0.00 47 1008.2
20260504050258 50 167 1.0 12.0 0.00 0.00 0.00 46 1008.3
20260504045758 50 230 1.0 11.0 0.00 0.00 0.00 46 1008.3
20260504045258 50 248 7.0 11.0 0.00 0.00 0.00 46 1008.3
20260504044758 49 247 3.0 4.0 0.00 0.00 0.00 47 1008.3
20260504044258 49 255 4.0 11.0 0.00 0.00 0.00 47 1008.2
20260504043758 49 277 4.0 10.0 0.00 0.00 0.00 47 1008.2
20260504043258 49 265 3.0 4.0 0.00 0.00 0.00 47 1008.2
20260504042758 49 169 1.0 7.0 0.00 0.00 0.00 47 1008.0
20260504042258 49 236 3.0 6.0 0.00 0.00 0.00 47 1008.0
20260504041758 49 234 3.0 6.0 0.00 0.00 0.00 47 1008.0
20260504041258 49 254 2.0 9.0 0.00 0.00 0.00 47 1007.9
20260504040758 50 0 0.0 6.0 0.00 0.00 0.00 47 1007.9
20260504040258 50 220 1.0 6.0 0.00 0.00 0.00 46 1007.9
20260504035758 50 255 2.0 10.0 0.00 0.00 0.00 46 1007.8
20260504035258 50 251 6.0 10.0 0.00 0.00 0.00 45 1007.8
20260504034758 50 288 2.0 9.0 0.00 0.00 0.00 45 1007.8
20260504034258 50 254 6.0 11.0 0.00 0.00 0.00 45 1007.8
20260504033758 51 269 4.0 11.0 0.00 0.00 0.00 45 1007.8
20260504033258 51 279 5.0 5.0 0.00 0.00 0.00 45 1007.8
20260504032758 51 272 2.0 11.0 0.00 0.00 0.00 45 1007.8
20260504032258 51 267 1.0 6.0 0.00 0.00 0.00 45 1007.8
20260504031758 51 199 2.0 6.0 0.00 0.00 0.00 44 1007.8
20260504031258 51 239 1.0 10.0 0.00 0.00 0.00 44 1007.7
20260504030758 51 254 3.0 10.0 0.00 0.00 0.00 44 1007.7
20260504030258 51 328 2.0 6.0 0.00 0.00 0.00 43 1007.7
20260504025758 52 285 9.0 11.0 0.00 0.00 0.00 43 1007.7
20260504025258 52 237 1.0 9.0 0.00 0.00 0.00 43 1007.7
20260504024758 52 283 3.0 6.0 0.00 0.00 0.00 43 1007.7
20260504024258 52 278 3.0 11.0 0.00 0.00 0.00 43 1007.8
20260504023758 52 255 5.0 9.0 0.00 0.00 0.00 43 1007.8
20260504023258 51 276 3.0 9.0 0.00 0.00 0.00 43 1007.8
20260504022758 51 268 4.0 12.0 0.00 0.00 0.00 43 1007.7
20260504022258 52 288 2.0 12.0 0.00 0.00 0.00 43 1007.7
20260504021758 52 236 4.0 10.0 0.00 0.00 0.00 44 1007.7
20260504021258 52 264 6.0 10.0 0.00 0.00 0.00 44 1007.7
20260504020758 51 245 4.0 10.0 0.00 0.00 0.00 44 1007.7
20260504020258 51 251 5.0 10.0 0.00 0.00 0.00 44 1007.7
20260504015758 51 260 3.0 7.0 0.00 0.00 0.00 44 1007.6
20260504015258 51 265 2.0 7.0 0.00 0.00 0.00 44 1007.6
20260504014758 52 270 3.0 5.0 0.00 0.00 0.00 44 1007.6
20260504014258 52 268 3.0 12.0 0.00 0.00 0.00 43 1007.5
20260504013758 52 255 2.0 7.0 0.00 0.00 0.00 43 1007.5
20260504013258 52 232 5.0 5.0 0.00 0.00 0.00 44 1007.5
20260504012758 52 273 3.0 7.0 0.00 0.00 0.00 43 1007.3
20260504012258 52 264 3.0 5.0 0.00 0.00 0.00 43 1007.3
20260504011758 52 297 2.0 5.0 0.00 0.00 0.00 42 1007.3
20260504011258 52 274 4.0 11.0 0.00 0.00 0.00 42 1007.4
20260504010758 52 278 3.0 11.0 0.00 0.00 0.00 42 1007.4
20260504010258 52 261 5.0 11.0 0.00 0.00 0.00 42 1007.4
20260504005758 52 264 5.0 9.0 0.00 0.00 0.00 41 1007.2
20260504005258 52 250 6.0 9.0 0.00 0.00 0.00 42 1007.2
20260504004758 53 289 1.0 9.0 0.00 0.00 0.00 41 1007.2
20260504004258 53 248 3.0 7.0 0.00 0.00 0.00 41 1006.9
20260504003758 53 276 1.0 7.0 0.00 0.00 0.00 41 1006.9
20260504003258 53 242 4.0 7.0 0.00 0.00 0.00 40 1006.9
20260504002758 53 298 1.0 9.0 0.00 0.00 0.00 40 1006.8
20260504002258 53 276 5.0 9.0 0.00 0.00 0.00 40 1006.8
20260504001758 53 252 3.0 6.0 0.00 0.00 0.00 40 1006.8
20260504001258 53 326 3.0 12.0 0.00 0.00 0.00 40 1006.7
20260504000758 54 309 3.0 12.0 0.00 0.00 0.00 40 1006.7
20260504000258 54 336 3.0 12.0 0.00 0.00 0.00 39 1006.7
20260503235758 54 283 3.0 13.0 0.00 0.00 0.00 39 1006.4
20260503235258 54 307 2.0 13.0 0.00 0.00 0.00 39 1006.4
20260503234758 54 311 6.0 9.0 0.00 0.00 0.00 38 1006.4
20260503234258 55 276 2.0 12.0 0.00 0.00 0.00 37 1006.3
20260503233758 55 282 5.0 8.0 0.00 0.00 0.00 37 1006.3
20260503233258 55 331 4.0 7.0 0.00 0.00 0.00 37 1006.3
20260503232758 55 297 2.0 14.0 0.00 0.00 0.00 37 1006.3
20260503232258 56 264 10.0 14.0 0.00 0.00 0.00 37 1006.3
20260503231758 56 281 12.0 12.0 0.00 0.00 0.00 37 1006.3
20260503231258 56 272 4.0 14.0 0.00 0.00 0.00 36 1006.3
20260503230758 56 300 6.0 9.0 0.00 0.00 0.00 37 1006.3
20260503230258 56 333 1.0 6.0 0.00 0.00 0.00 37 1006.3
20260503225758 56 250 2.0 11.0 0.00 0.00 0.00 36 1006.2
20260503225258 56 249 2.0 11.0 0.00 0.00 0.00 36 1006.2
20260503224758 56 276 4.0 7.0 0.00 0.00 0.00 36 1006.2
20260503224258 56 269 6.0 14.0 0.00 0.00 0.00 36 1006.0
20260503223758 56 300 10.0 14.0 0.00 0.00 0.00 35 1006.0
20260503223258 57 290 3.0 14.0 0.00 0.00 0.00 33 1006.0
20260503222758 57 271 4.0 14.0 0.00 0.00 0.00 34 1006.1
20260503222258 56 288 8.0 13.0 0.00 0.00 0.00 34 1006.1
20260503221758 56 286 12.0 12.0 0.00 0.00 0.00 35 1006.1
20260503221258 56 296 3.0 15.0 0.00 0.00 0.00 35 1006.0
20260503220758 56 321 3.0 12.0 0.00 0.00 0.00 34 1006.0
20260503220258 57 289 5.0 12.0 0.00 0.00 0.00 33 1006.0
20260503215758 57 288 8.0 19.0 0.00 0.00 0.00 33 1005.9
20260503215258 57 283 8.0 19.0 0.00 0.00 0.00 32 1005.9
20260503214758 57 44 6.0 14.0 0.00 0.00 0.00 32 1005.9
20260503214258 57 309 12.0 18.0 0.00 0.00 0.00 32 1005.7
20260503213758 57 293 4.0 17.0 0.00 0.00 0.00 32 1005.7
20260503213258 57 340 6.0 15.0 0.00 0.00 0.00 31 1005.7
20260503212758 58 296 7.0 15.0 0.00 0.00 0.00 32 1005.7
20260503212258 58 340 3.0 15.0 0.00 0.00 0.00 31 1005.7
20260503211758 57 345 3.0 11.0 0.00 0.00 0.00 33 1005.7
20260503211258 57 359 9.0 16.0 0.00 0.00 0.00 32 1005.8
20260503210758 57 349 4.0 16.0 0.00 0.00 0.00 32 1005.8
20260503210258 57 294 6.0 14.0 0.00 0.00 0.00 32 1005.8
20260503205758 56 289 3.0 19.0 0.00 0.00 0.00 32 1005.9
20260503205258 56 323 6.0 18.0 0.00 0.00 0.00 33 1005.9
20260503204758 56 306 11.0 18.0 0.00 0.00 0.00 32 1005.9
20260503204258 56 359 6.0 22.0 0.00 0.00 0.00 32 1006.0
20260503203758 56 319 10.0 20.0 0.00 0.00 0.00 32 1006.0
20260503203258 56 259 10.0 14.0 0.00 0.00 0.00 33 1006.0
20260503202758 56 316 4.0 15.0 0.00 0.00 0.00 33 1006.1
20260503202258 56 287 2.0 15.0 0.00 0.00 0.00 34 1006.1
20260503201758 56 334 10.0 15.0 0.00 0.00 0.00 33 1006.1
20260503201258 55 283 11.0 18.0 0.00 0.00 0.00 33 1006.3
20260503200758 55 359 5.0 15.0 0.00 0.00 0.00 34 1006.3
20260503200258 55 359 5.0 15.0 0.00 0.00 0.00 33 1006.3
20260503195758 55 326 6.0 23.0 0.00 0.00 0.00 33 1006.4
20260503195258 55 233 6.0 19.0 0.00 0.00 0.00 34 1006.4
20260503194758 55 325 6.0 19.0 0.00 0.00 0.00 35 1006.4
20260503194258 54 335 5.0 20.0 0.00 0.00 0.00 35 1006.6
20260503193758 54 359 11.0 20.0 0.00 0.00 0.00 36 1006.6
20260503193258 54 280 11.0 18.0 0.00 0.00 0.00 35 1006.6
20260503192758 54 351 5.0 23.0 0.00 0.00 0.00 36 1006.9
20260503192258 55 267 7.0 23.0 0.00 0.00 0.00 34 1006.9
20260503191758 54 359 7.0 23.0 0.00 0.00 0.00 35 1006.9
20260503191258 54 298 5.0 19.0 0.00 0.00 0.00 36 1006.8
20260503190758 54 310 9.0 19.0 0.00 0.00 0.00 37 1006.8
20260503190258 54 274 10.0 12.0 0.00 0.00 0.00 36 1006.8
20260503185759 53 319 6.0 20.0 0.00 0.00 0.00 35 1006.9
20260503185258 53 255 9.0 20.0 0.00 0.00 0.00 37 1006.9
20260503184758 52 345 4.0 18.0 0.00 0.00 0.00 36 1006.9
20260503184258 53 264 5.0 18.0 0.00 0.00 0.00 36 1006.9
20260503183758 53 277 11.0 18.0 0.00 0.00 0.00 35 1006.9
20260503183258 54 303 5.0 14.0 0.00 0.00 0.00 39 1006.9
20260503182758 53 276 10.0 13.0 0.00 0.00 0.00 36 1007.0
20260503182258 53 354 3.0 12.0 0.00 0.00 0.00 40 1007.0
20260503181758 52 271 11.0 12.0 0.00 0.00 0.00 37 1007.0
20260503181258 52 294 13.0 22.0 0.00 0.00 0.00 36 1007.0
20260503180758 52 316 10.0 22.0 0.00 0.00 0.00 37 1007.0
20260503180258 52 348 5.0 13.0 0.00 0.00 0.00 37 1007.0
20260503175758 52 290 10.0 16.0 0.00 0.00 0.00 39 1007.1
20260503175258 52 347 7.0 16.0 0.00 0.00 0.00 36 1007.1
20260503174758 52 275 13.0 13.0 0.00 0.00 0.00 40 1007.1
20260503174258 51 313 9.0 20.0 0.00 0.00 0.00 38 1007.1
20260503173758 51 295 3.0 18.0 0.00 0.00 0.00 39 1007.1
20260503173258 51 272 12.0 18.0 0.00 0.00 0.00 39 1007.1
20260503172758 51 305 1.0 23.0 0.00 0.00 0.00 40 1007.3
20260503172258 51 312 13.0 23.0 0.00 0.00 0.00 39 1007.3
20260503171758 51 214 10.0 12.0 0.00 0.00 0.00 42 1007.3
20260503171258 50 236 2.0 19.0 0.00 0.00 0.00 41 1007.4
20260503170758 50 304 9.0 19.0 0.00 0.00 0.00 39 1007.4
20260503170258 50 333 10.0 13.0 0.00 0.00 0.00 43 1007.4